Skip Page Navigation
NASA JPL Caltech
NASA Logo - Jet Propulsion Laboratory + View the NASA Portal
+ Near-Earth Object (NEO) Program
Search JPL
JPL Home Earth Solar System Stars & Galaxies Technology
JPL Solar System Dynamics
BODIES ORBITS EPHEMERIDES TOOLS PHYSICAL DATA DISCOVERY FAQ SITE MAP
JPL Small-Body Database Browser
Search: [ help ]  
31000 Rockchic (1995 VV)
Classification: Main-belt Asteroid          SPK-ID: 2031000
Ephemeris | Orbit Diagram | Orbital Elements | Physical Parameters | Discovery Circumstances ]

[ show orbit diagram ]
Orbital Elements at Epoch 2457400.5 (2016-Jan-13.0) TDB
Reference: JPL 16 (heliocentric ecliptic J2000)
 Element Value Uncertainty (1-sigma)   Units 
e .05313232155931485 8.0494e-08  
a 3.00409500236922 3.0745e-08 au
q 2.844480460708608 2.5841e-07 au
i 11.29004159583925 6.8377e-06 deg
node 38.66383225718137 2.7846e-05 deg
peri 317.8992481260715 5.6824e-05 deg
M 5.898122308551859 4.9514e-05 deg
tp 2457369.341237959236
(2015-Dec-12.84123796)
0.00026147 JED
period 1901.817857932675
5.21
2.9196e-05
7.993e-08
d
yr
n .1892925752581424 2.9059e-09 deg/d
Q 3.163709544029833 3.2379e-08 au
  Orbit Determination Parameters
   # obs. used (total)      901  
   data-arc span      7317 days (20.03 yr)  
   first obs. used      1995-11-11  
   last obs. used      2015-11-23  
   planetary ephem.      DE431  
   SB-pert. ephem.      SB431-BIG16  
   condition code      0  
   fit RMS      .54174  
   data source      ORB  
   producer      Otto Matic  
   solution date      2016-Jan-04 14:15:30  

Additional Information
 Earth MOID = 1.85168 au 
 Jupiter MOID = 2.09411 au 
 T_jup = 3.220 
[ show covariance matrix ]

Ephemeris | Orbit Diagram | Orbital Elements | Physical Parameters | Discovery Circumstances ]

Physical Parameter Table
Parameter Symbol Value Units Sigma Reference Notes
absolute magnitude H 13.4 mag n/a MPO351043  

31000 Rockchic           Discovered 1995 Nov. 11 by AMOS at Haleakala.
Gail ("Rockchic") Swanson (b. 1960) is an award-winning Maui-based singer-songwriter. Classically trained and rock inspired, her style is acoustic pop/rock. Her recordings feature her voice, guitar and flute. In addition to her own gigs, she performs at benefits and routinely opens for world-renowned artists.
NOTE: some special characters may not display properly (any characters within {} are an attempt to place the proper accent above a character)
Reference: 20070926/MPCPages.arcLast Updated: 2007-09-30

Alternate Designations
 1995 VV = 1998 HC52 
Ephemeris | Orbit Diagram | Orbital Elements | Physical Parameters | Discovery Circumstances ]
ABOUT SSD CREDITS/AWARDS PRIVACY/COPYRIGHT GLOSSARY LINKS
FirstGov 2016-Feb-07 21:43 UT
(server date/time)  
NASA Home Page
Site Manager:   Ryan S. Park
Webmaster  Alan B. Chamberlin